Prescott, AZ

4:28 AM MST on December 13, 2019 (GMT -0700)
Love

Weather History for KPRC - November, 2019

Change the Weather History Date:

Saturday, November 16, 2019

  Actual Average Record
Temperature  
Mean Temperature 54 °F 46 °F  
Max Temperature 71 °F 60 °F 76 °F (1999)
Min Temperature 36 °F 31 °F 9 °F (1964)
Degree Days  
Heating Degree Days 12    
Month to date heating degree days 182  
Since 1 July heating degree days 501  
Cooling Degree Days 0    
Month to date cooling degree days 0  
Year to date cooling degree days 1130  
Growing Degree Days 4 (Base 50)    
Moisture  
Dew Point 24 °F    
Average Humidity 40    
Maximum Humidity 65    
Minimum Humidity 13    
Precipitation  
Precipitation 0.00 in 0.03 in 0.41 in (1969)
Month to date precipitation 0.26 0.46  
Year to date precipitation 10.55 12.55  
Sea Level Pressure  
Sea Level Pressure 30.03 in    
Wind  
Wind Speed 5 mph ()    
Max Wind Speed 12 mph    
Max Gust Speed 14 mph    
Visibility 10.0 miles    
Events      
T = Trace of Precipitation, MM = Missing Value Source: Averaged Metar Reports

Daily Weather History Graph

Daily Weather History Graph

Search for Another Location

Airport or City:

Astronomy

Nov. 16, 2019 Rise Set
Actual Time 7:04 AM MST 5:24 PM MST
Civil Twilight 6:37 AM MST 5:51 PM MST
Nautical Twilight 6:06 AM MST 6:21 PM MST
Astronomical Twilight 5:37 AM MST 6:51 PM MST
Moon 9:05 PM MST (11/16) 10:57 AM MST (11/16)
Length of Visible Light 11h 13m
Length of Day
10h 20m
Waning Gibbous, 82% of the Moon is Illuminated
Nov 16
Waning Gibbous
Nov 19
Last Quarter
Nov 26
New
Dec 3
First Quarter
Dec 11
Full

Hourly Weather History & Observations

Time (MST) Temp. Windchill Dew Point Humidity Pressure Visibility Wind Dir Wind Speed Gust Speed Precip Events Conditions
12:53 AM 44.1 °F 40.8 °F 27.0 °F 51% 30.01 in 10.0 mi South 5.8 mph - N/A   Smoke
1:53 AM 41.0 °F 36.4 °F 27.0 °F 57% 30.02 in 10.0 mi SSW 6.9 mph - N/A   Smoke
2:53 AM 39.0 °F 34.8 °F 27.0 °F 62% 30.03 in 10.0 mi SSW 5.8 mph - N/A   Smoke
3:53 AM 39.0 °F 34.0 °F 26.1 °F 60% 30.02 in 10.0 mi South 6.9 mph - N/A   Smoke
4:53 AM 39.9 °F 36.7 °F 26.1 °F 58% 30.02 in 10.0 mi SSW 4.6 mph - N/A   Smoke
5:53 AM 37.9 °F 35.5 °F 25.0 °F 60% 30.04 in 10.0 mi NW 3.5 mph - N/A   Smoke
6:53 AM 37.0 °F 34.5 °F 26.1 °F 65% 30.07 in 10.0 mi SSW 3.5 mph - N/A   Smoke
7:53 AM 39.0 °F 34.8 °F 26.1 °F 60% 30.10 in 10.0 mi SSW 5.8 mph - N/A   Smoke
8:53 AM 48.9 °F - 28.0 °F 44% 30.09 in 10.0 mi South 3.5 mph - N/A   Smoke
9:53 AM 57.9 °F - 27.0 °F 31% 30.05 in 10.0 mi SSW 5.8 mph - N/A   Smoke
10:53 AM 59.0 °F - 25.0 °F 27% 30.06 in 10.0 mi NNW 8.1 mph - N/A   Clear
11:53 AM 64.9 °F - 25.0 °F 22% 30.01 in 10.0 mi North 5.8 mph - N/A   Clear
12:53 PM 64.9 °F - 25.0 °F 22% 29.99 in 10.0 mi NNW 5.8 mph - N/A   Clear
1:53 PM 68.0 °F - 23.0 °F 18% 29.97 in 10.0 mi NW 5.8 mph - N/A   Clear
2:53 PM 69.1 °F - 19.9 °F 15% 29.96 in 10.0 mi Calm Calm - N/A   Clear
3:53 PM 69.1 °F - 18.0 °F 14% 29.96 in 10.0 mi SSW 4.6 mph - N/A   Clear
4:53 PM 68.0 °F - 16.0 °F 14% 29.96 in 10.0 mi SW 3.5 mph - N/A   Clear
5:53 PM 57.0 °F - 21.0 °F 25% 30.01 in 10.0 mi West 4.6 mph - N/A   Clear
7:53 PM 50.0 °F - 23.0 °F 35% 30.07 in 10.0 mi SSW 5.8 mph - N/A   Clear
8:53 PM 53.1 °F - 19.9 °F 27% 30.04 in 10.0 mi WNW 5.8 mph - N/A   Clear
9:53 PM 44.1 °F - 26.1 °F 49% 30.05 in 10.0 mi Calm Calm - N/A   Clear
10:53 PM 43.0 °F 41.3 °F 27.0 °F 53% 30.07 in 10.0 mi SSW 3.5 mph - N/A   Clear
11:53 PM 43.0 °F 37.7 °F 21.9 °F 43% 30.06 in 10.0 mi South 9.2 mph - N/A   Clear